Date String (YYYY-MM-DD hh:mm:ss) UTC,Instrument flags,Ambient pressure (hPa),Sample flow (lpm),Bypass flow (lpm),Sample temperature (°C),Ambient temperature (°C),ASC tube jacket temperature (°C),LED temperature (°C),Box temperature (°C),Sample RH (%),Span deviation,Mass concentration (μg/m³),Mass concentration (μg/m³),Mass concentration (μg/m³)
DateTimeUTC,F1_M11,P_M11,Q1_M11,Q2_M11,T1_M11,T2_M11,T3_M11,T4_M11,T5_M11,U1_M11,ZSPAN_M11,X0_M11,X2_M11,X1_M11
2022-11-21 12:00:00,,0829.3,4.99,0.00,22.3,21.1,00.0,31.2,24.2,07.2,0000.0,0004.84,0003.46,0003.26
2022-11-21 12:01:00,,0829.3,5.00,0.00,22.3,21.1,00.0,31.2,24.1,07.2,0000.0,0006.11,0003.47,0003.28
2022-11-21 12:02:00,,0829.3,5.00,0.00,22.3,21.1,00.0,31.2,24.1,07.2,0000.0,0006.55,0003.51,0003.30
2022-11-21 12:03:00,,0829.3,5.00,0.00,22.3,21.0,00.0,31.2,24.1,07.3,0000.0,0006.68,0003.56,0003.34
2022-11-21 12:04:00,,0829.2,4.99,0.00,22.3,21.0,00.0,31.2,24.1,07.3,0000.0,0006.78,0003.59,0003.38
2022-11-21 12:05:00,,0829.3,5.00,0.00,22.3,21.0,00.0,31.2,24.0,07.3,0000.0,0006.98,0003.65,0003.43
2022-11-21 12:06:00,,0829.2,5.01,0.00,22.3,20.9,00.0,31.2,24.0,07.3,0000.0,0007.00,0003.69,0003.47
2022-11-21 12:07:00,,0829.2,4.99,0.00,22.3,20.9,00.0,31.2,24.0,07.3,0000.0,0007.06,0003.71,0003.48
2022-11-21 12:08:00,,0829.4,4.99,0.00,22.2,20.9,00.0,31.1,24.0,07.3,0000.0,0007.03,0003.72,0003.51
2022-11-21 12:09:00,,0829.2,5.01,0.00,22.2,20.9,00.0,31.1,24.0,07.3,0000.0,0007.01,0003.74,0003.56
2022-11-21 12:10:00,,0829.2,5.01,0.00,22.2,20.9,00.0,31.1,24.0,07.3,0000.0,0007.12,0003.81,0003.62
2022-11-21 12:11:00,,0829.2,5.00,0.00,22.2,20.9,00.0,31.1,24.0,07.3,0000.0,0007.25,0003.89,0003.71
2022-11-21 12:12:00,,0829.3,4.99,0.00,22.2,20.8,00.0,31.1,24.0,07.3,0000.0,0005.95,0003.97,0003.78
2022-11-21 12:13:00,,0829.3,5.00,0.00,22.2,20.9,00.0,31.1,24.0,07.4,0000.0,0005.66,0004.01,0003.83
2022-11-21 12:14:00,,0829.3,5.01,0.00,22.3,21.5,00.0,31.1,24.2,07.3,0000.0,0005.74,0004.04,0003.85
2022-11-21 12:15:00,,0829.3,5.00,0.00,22.3,22.3,00.0,31.1,24.3,07.3,0000.0,0006.37,0004.10,0003.89
2022-11-21 12:16:00,,0829.3,4.99,0.00,22.4,22.3,00.0,31.1,24.4,07.2,0000.0,0006.38,0004.11,0003.90
2022-11-21 12:17:00,,0829.3,5.00,0.00,22.4,22.0,00.0,31.2,24.4,07.2,0000.0,0006.36,0004.10,0003.92
2022-11-21 12:18:00,,0829.4,5.00,0.00,22.4,21.7,00.0,31.2,24.3,07.2,0000.0,0006.48,0004.13,0003.96
2022-11-21 12:19:00,,0829.3,5.00,0.00,22.4,21.5,00.0,31.2,24.3,07.3,0000.0,0006.72,0004.19,0004.01
2022-11-21 12:20:00,,0829.2,5.00,0.00,22.4,21.3,00.0,31.2,24.3,07.3,0000.0,0006.94,0004.26,0004.07
2022-11-21 12:21:00,,0829.3,5.00,0.00,22.4,21.2,00.0,31.2,24.2,07.3,0000.0,0007.04,0004.31,0004.12
2022-11-21 12:22:00,,0829.3,5.00,0.00,22.4,21.1,00.0,31.3,24.2,07.3,0000.0,0007.11,0004.33,0004.14
2022-11-21 12:23:00,,0829.3,5.01,0.00,22.4,21.1,00.0,31.3,24.2,07.2,0000.0,0007.08,0004.32,0004.13
2022-11-21 12:24:00,,0829.3,5.00,0.00,22.4,21.0,00.0,31.2,24.2,07.2,0000.0,0007.21,0004.31,0004.13
2022-11-21 12:25:00,,0829.3,4.99,0.00,22.3,21.0,00.0,31.2,24.1,07.2,0000.0,0007.36,0004.29,0004.10
2022-11-21 12:26:00,,0829.3,4.99,0.00,22.3,21.0,00.0,31.2,24.1,07.2,0000.0,0007.18,0004.24,0004.04
2022-11-21 12:27:00,,0829.4,5.02,0.00,22.3,21.0,00.0,31.2,24.1,07.1,0000.0,0007.64,0004.20,0003.99
2022-11-21 12:28:00,,0829.4,5.00,0.00,22.3,20.9,00.0,31.2,24.1,07.1,0000.0,0007.59,0004.15,0003.93
2022-11-21 12:29:00,,0829.4,4.99,0.00,22.3,20.9,00.0,31.2,24.1,07.1,0000.0,0007.61,0004.10,0003.86
2022-11-21 12:30:00,,0829.5,4.99,0.00,22.3,20.9,00.0,31.2,24.1,07.2,0000.0,0007.48,0004.00,0003.76
2022-11-21 12:31:00,,0829.5,5.01,0.00,22.3,20.9,00.0,31.2,24.0,07.2,0000.0,0007.33,0003.90,0003.66
2022-11-21 12:32:00,,0829.5,5.00,0.00,22.3,20.9,00.0,31.2,24.0,07.2,0000.0,0007.18,0003.81,0003.58
2022-11-21 12:33:00,,0829.5,5.00,0.00,22.2,20.9,00.0,31.2,24.0,07.2,0000.0,0006.98,0003.73,0003.51
2022-11-21 12:34:00,,0829.4,5.00,0.00,22.2,20.9,00.0,31.1,24.0,07.2,0000.0,0006.91,0003.68,0003.47
2022-11-21 12:35:00,,0829.4,5.00,0.00,22.2,20.8,00.0,31.1,24.0,07.2,0000.0,0006.71,0003.66,0003.44
2022-11-21 12:36:00,,0829.5,5.00,0.00,22.2,20.9,00.0,31.1,24.0,07.2,0000.0,0006.46,0003.64,0003.44
2022-11-21 12:37:00,,0829.5,5.01,0.00,22.3,21.7,00.0,31.1,24.2,07.2,0000.0,0005.86,0003.62,0003.45
2022-11-21 12:38:00,,0829.5,5.00,0.00,22.4,22.4,00.0,31.1,24.4,07.2,0000.0,0005.14,0003.65,0003.49
2022-11-21 12:39:00,,0829.5,4.99,0.00,22.4,22.3,00.0,31.2,24.4,07.2,0000.0,0005.17,0003.69,0003.54
2022-11-21 12:40:00,,0829.5,4.99,0.00,22.4,22.0,00.0,31.2,24.4,07.2,0000.0,0004.97,0003.68,0003.56
2022-11-21 12:41:00,,0829.5,5.02,0.00,22.4,21.7,00.0,31.2,24.3,07.2,0000.0,0004.96,0003.71,0003.60
2022-11-21 12:42:00,,0829.5,5.00,0.00,22.4,21.5,00.0,31.3,24.3,07.2,0000.0,0005.10,0003.73,0003.60
2022-11-21 12:43:00,,0829.5,4.99,0.00,22.4,21.3,00.0,31.3,24.3,07.2,0000.0,0005.03,0003.69,0003.55
2022-11-21 12:44:00,,0829.5,4.99,0.00,22.4,21.2,00.0,31.3,24.2,07.2,0000.0,0005.05,0003.66,0003.51
2022-11-21 12:45:00,,0829.5,4.99,0.00,22.4,21.1,00.0,31.3,24.2,07.2,0000.0,0005.03,0003.62,0003.48
2022-11-21 12:46:00,,0829.5,5.00,0.00,22.4,21.1,00.0,31.3,24.2,07.2,0000.0,0005.05,0003.57,0003.42
2022-11-21 12:47:00,,0829.5,4.99,0.00,22.4,21.1,00.0,31.3,24.2,07.3,0000.0,0004.99,0003.54,0003.40
2022-11-21 12:48:00,,0829.5,5.00,0.00,22.3,21.1,00.0,31.2,24.1,07.3,0000.0,0005.02,0003.54,0003.38
2022-11-21 12:49:00,,0829.4,5.00,0.00,22.3,21.0,00.0,31.2,24.1,07.3,0000.0,0005.03,0003.53,0003.36
2022-11-21 12:50:00,,0829.5,5.00,0.00,22.3,21.0,00.0,31.2,24.1,07.3,0000.0,0005.02,0003.52,0003.34
2022-11-21 12:51:00,,0829.4,5.00,0.00,22.3,20.9,00.0,31.2,24.1,07.4,0000.0,0005.14,0003.56,0003.37
2022-11-21 12:52:00,,0829.5,5.00,0.00,22.3,20.9,00.0,31.2,24.1,07.3,0000.0,0005.17,0003.57,0003.38
2022-11-21 12:53:00,,0829.5,5.00,0.00,22.3,20.9,00.0,31.2,24.1,07.2,0000.0,0004.97,0003.52,0003.35
2022-11-21 12:54:00,,0829.5,5.02,0.00,22.3,20.9,00.0,31.2,24.1,07.1,0000.0,0004.87,0003.48,0003.32
2022-11-21 12:55:00,,0829.5,4.99,0.00,22.3,20.9,00.0,31.2,24.1,07.1,0000.0,0004.68,0003.43,0003.28
2022-11-21 12:56:00,,0829.5,4.99,0.00,22.3,20.8,00.0,31.2,24.1,07.2,0000.0,0004.52,0003.38,0003.24
2022-11-21 12:57:00,,0829.5,5.02,0.00,22.2,20.8,00.0,31.2,24.0,07.2,0000.0,0004.51,0003.39,0003.23
2022-11-21 12:58:00,,0829.5,4.99,0.00,22.2,20.8,00.0,31.2,24.0,07.3,0000.0,0004.58,0003.33,0003.18
2022-11-21 12:59:00,,0829.5,4.99,0.00,22.2,20.7,00.0,31.2,24.0,07.3,0000.0,0004.88,0003.25,0003.10
